Regional Weather Roundup
Issued by NWS San Angelo, TX

Home | Current Version | Previous Version | Text Only | Print | Product List | Glossary On
Versions: 1 2 3 4 5 6 7 8 9 10 11 12 13 14 15 16 17 18 19 20 21 22 23 24 25 26 27 28 29 30 31 32 33 34 35 36 37 38 39 40 41 42 43 44 45 46 47 48 49 50
000
ASUS44 KSJT 181110
RWRSJT
WEST CENTRAL TEXAS REGIONAL WEATHER ROUNDUP
NATIONAL WEATHER SERVICE SAN ANGELO TX
500 AM CST WED JAN 18 2017

NOTE: "FAIR" INDICATES FEW OR NO CLOUDS BELOW 12,000 FEET WITH NO
SIGNIFICANT WEATHER AND/OR OBSTRUCTIONS TO VISIBILITY.

TXZ049-054-064>066-071>073-076>078-098-099-113-114-127-128-139-140-
154-155-168>170-181200
...LOCATIONS ACROSS WEST CENTRAL TEXAS...

CITY           SKY/WX    TMP DP  RH WIND       PRES   REMARKS
SAN ANGELO     CLOUDY    44  43  96 NW7       30.11F FOG
ABILENE        CLOUDY    42  42 100 NW3       30.13R
DYESS AFB      CLOUDY    43  40  90 NW3       30.11R
JUNCTION       CLOUDY    45  44  97 W9        30.14R
SWEETWATER     CLOUDY    43  43 100 CALM      30.13F
BROWNWOOD      LGT RAIN  46  46 100 NW8       30.12R
COLEMAN        CLOUDY    46  45  93 N3        30.12R
SONORA         CLOUDY    45  43  93 N7        30.14F
OZONA          CLOUDY    43  43 100 MISG      30.15R
BRADY          NOT AVBL
$$

TEXAS PANHANDLE/OKLAHOMA PANHANDLE

CITY           SKY/WX    TMP DP  RH WIND       PRES   REMARKS
AMARILLO       FOG       39  39 100 SW15      30.06F VSB 1/2 WCI  31
BORGER         CLEAR     40  39  97 SW5       30.05F WCI  37
CANADIAN       CLEAR     33  32  95 SW3       30.05F
DALHART        MOCLDY    37  36  96 SW6       30.05F WCI  32
DUMAS          MOSUNNY   37  36  96 W6        30.05F FOG     WCI  32
GUYMON         NOT AVBL
HEREFORD       CLOUDY    42  42 100 SW9       30.08F FOG     WCI  36
PAMPA          SUNNY     37  36  94 W6        30.06F WCI  33
PERRYTON       NOT AVBL
$$

SOUTHERN PANHANDLE/SOUTH PLAINS/ROLLING PLAINS

CITY           SKY/WX    TMP DP  RH WIND       PRES   REMARKS
LUBBOCK        CLOUDY    43  42  97 SW7       30.09F WCI  39
SNYDER         CLOUDY    42  41  97 CALM      30.12F
CHILDRESS      CLOUDY    42  41  96 SW3       30.08F
SEMINOLE       CLOUDY    42  42 100 CALM      30.13F FOG
$$

PERMIAN BASIN

CITY           SKY/WX    TMP DP  RH WIND       PRES   REMARKS
MIDLAND        CLOUDY    44  42  93 CALM      30.12F
ODESSA         CLOUDY    43  41  93 NW5       30.13F FOG
WINK           CLOUDY    44  41  89 W6        30.13F
$$

FAR WEST/SOUTHWEST MOUNTAINS/TRANS PECOS

CITY           SKY/WX    TMP DP  RH WIND       PRES   REMARKS
ALPINE         CLOUDY    36  36  99 SW6       30.18F VSB 3/4 WCI  31
DRYDEN           N/A     46  41  82 NW7       30.12F
EL PASO        PTCLDY    35  32  88 E5        30.13F WCI  31
FORT STOCKTON  CLOUDY    42  40  92 W8        30.15F WCI  37
GUADALUPE PASS FOG       36  36 100 SW12      30.12F VSB<1/4 WCI  28
MARFA          FOG       35  35 100 CALM      30.15F VSB 1/4
PECOS          CLOUDY    44  41  90 CALM      30.15F
$$

DALLAS/FORT WORTH METROPLEX

CITY           SKY/WX    TMP DP  RH WIND       PRES   REMARKS
DFW AIRPORT    CLOUDY    48  46  93 N9        30.11R
FTW MEACHAM    CLOUDY    48  44  86 NE7       30.11F
DAL-EXECUTIVE  CLOUDY    48  47  96 N5        30.11R
GRAND PRAIRIE  CLOUDY    47  47 100 N5        30.13S
ADDISON        NOT AVBL
MESQUITE       CLOUDY    46  46  99 N5        30.12S
LANCASTER      CLOUDY    47  46  97 N3        30.13R
$$

NORTH CENTRAL TEXAS

CITY           SKY/WX    TMP DP  RH WIND       PRES   REMARKS
SHRMAN/DENISON CLOUDY   N/A N/A N/A N3        30.14S
GAINESVILLE    CLOUDY    43  42  97 N5        30.14F
BRIDGEPORT     CLOUDY    45  45 100 N5        30.14S FOG
DENTON         MOCLDY    45  44  97 N8        30.12F
WAXAHACHIE     CLOUDY    46  46 100 N3        30.12S FOG
GRANBURY       CLOUDY    48  46  93 NW5       30.12S
$$

WESTERN NORTH TEXAS

CITY           SKY/WX    TMP DP  RH WIND       PRES   REMARKS
WICHITA FALLS  MOCLDY    41  40  96 N3        30.11F FOG
VERNON         CLOUDY    43  40  88 CALM      30.11F
BRECKENRIDGE   CLOUDY    46  45  97 CALM      30.11S
COMANCHE       CLOUDY    46  46 100 N6        30.10F
$$

CENTRAL AND SOUTH CENTRAL TEXAS

CITY           SKY/WX    TMP DP  RH WIND       PRES   REMARKS
AUSTIN/BERGSTM CLOUDY    49  47  93 N8        30.06F
WACO           CLOUDY    47  47 100 N8        30.10S
HILLSBORO      NOT AVBL
TEMPLE         HVY RAIN  47  46  97 N10       30.08F
KILLEEN-GRAY   LGT RAIN  46  45  93 N8        30.08S FOG
FORT HOOD      NOT AVBL
GEORGETOWN     CLOUDY    46  43  87 N7        30.07F
LAGO VISTA     TSTM      46  46  97 NE6       30.07R
SAN MARCOS     CLOUDY    46  46 100 N12       30.07S
NEW BRAUNFELS  LGT RAIN  49  46  90 N9        30.06R
RANDOLPH AFB   LGT RAIN  48  48 100 N10       30.05S
SAN ANTONIO    LGT RAIN  49  46  90 N7        30.05S
STINSON        LGT RAIN  51  48  89 N6        30.03F
PLEASANTON     NOT AVBL
LA GRANGE      CLOUDY    51  50  96 N7        30.04S
GIDDINGS       CLOUDY    48  47  97 N9        30.05F
$$

EAST TEXAS

CITY           SKY/WX    TMP DP  RH WIND       PRES   REMARKS
PARIS          CLOUDY    45  43  93 NE8       30.13F
CLARKSVILLE    NOT AVBL
TYLER          LGT RAIN  49  48  97 N6        30.11S
LONGVIEW       HVY RAIN  50  50 100 NW6       30.08F FOG
PALESTINE      CLOUDY    49  49 100 NW3       30.11F FOG
NACOGDOCHES    CLOUDY    54  52  94 N3        30.05F
$$

TEXAS HILL COUNTRY AND EDWARDS PLATEAU

CITY           SKY/WX    TMP DP  RH WIND       PRES   REMARKS
LLANO          LGT RAIN  46  46 100 CALM      30.14S
HORSESHOE BAY  CLOUDY    46  46  98 NW3       30.08F
KERRVILLE      DRIZZLE   44  43  95 NW7       30.09F
FREDERICKSBRG  DRIZZLE   44  43  95 NW6       30.09S
ROCKSPRINGS    LGT RAIN  45  43  93 N5        30.10F
HONDO          LGT RAIN  50  48  93 N14       30.05F
UVALDE         CLOUDY    50  48  93 CALM      30.07F
DEL RIO        CLOUDY    49  45  86 NW13      30.10F
$$

SOUTHEAST TEXAS

CITY           SKY/WX    TMP DP  RH WIND       PRES   REMARKS
COLLEGE STN    CLOUDY    51  49  92 N13       30.06F
CALDWELL       NOT AVBL
CROCKETT       LGT RAIN  50  50 100 N3        30.11R
BRENHAM        CLOUDY    52  52  99 N9        30.05F
HUNTSVILLE     LGT RAIN  53  52  96 N6        30.06F FOG
CONROE         RAIN      60  59  96 NW10      30.04S
HOUSTON BUSH   TSTM      62  61  96 NE7       30.01S VSB 1
HOUSTON HOBBY  CLOUDY    72  70  93 S10       29.99S THUNDER
PERLAND        CLOUDY    73  70  90 S12       30.01S
WHARTON        HVY RAIN  61  60  96 N8        30.01S
$$

THE UPPER TEXAS COAST

CITY           SKY/WX    TMP DP  RH WIND       PRES   REMARKS
ORANGE         CLOUDY   N/A N/A N/A S8        30.05S FOG
PORT ARTHUR    CLOUDY    71  69  93 S9        30.03S
GALVESTON      CLOUDY    69  68  96 SE10      30.03R FOG
ANGLETON       CLOUDY    73  71  93 S12       30.00S
BAY CITY       CLOUDY    71  71 100 S6        30.01R
$$

TEXAS COASTAL BEND, RIO GRANDE PLAINS DEEP SOUTH TEXAS

CITY           SKY/WX    TMP DP  RH WIND       PRES   REMARKS
VICTORIA       CLOUDY    56  54  93 N10       30.02R
BEEVILLE       RAIN      48  48 100 N7        30.01S
ROCKPORT       CLOUDY    70  69  97 S7        29.98F FOG
PORT ARANSAS   FOG       67  66  97 S8        29.98F VSB<1/4
PORT LAVACA    LGT RAIN  61  61 100 N9        30.00S
CORPUS CHRISTI CLOUDY    70  70 100 S10       29.97F FOG
KINGSVILLE NAS CLOUDY    61  61 100 NW15      29.99R
COTULLA        CLOUDY    54  52  93 N9        30.06S
LAREDO         CLOUDY    53  52  96 NW10      30.06S
BROWNSVILLE    CLOUDY    69  68  96 SE6       29.99S
PORT ISABEL    PTCLDY    69  69 100 S6        29.98F FOG
HEBBRONVILLE   CLOUDY    54  53  97 N13G20    30.03S FOG
MCALLEN        CLOUDY    64  60  87 NW8       30.01R
WESLACO        CLOUDY    68  65  90 NW9       29.98R
FALFURRIAS     CLOUDY    58  56  94 NW9       29.99S
EDINBURG       CLOUDY    64  61  89 NW13      30.01R
$$



USA.gov is the U.S. government's official web portal to all federal, state and local government web resources and services.